This demonstration page uses our WeatherBlox Daily Observations layout. Learn more.

Left ArrowRight Arrow

Hourly Observations for November 28, 2019

Temp ( °F °C ) Dew Point ( °F °C ) Humidity (%) Winds ( mph kmh ) Pressure ( in mb ) Visibility ( mi km ) Precip ( " mm )
12:53 am 00:53 Clear 50 10 28 -2.2 43 43 WNW 6 9 30.21 1023 10 16 0.00 0.00
1:53 am 01:53 Clear 48 8.9 29 -1.7 48 48 NW 5 7 30.24 1024 10 16 0.00 0.00
2:53 am 02:53 Clear 47 8.3 29 -1.7 50 50 VRB 5 7 30.24 1024 10 16 0.00 0.00
3:53 am 03:53 Clear 46 7.8 29 -1.7 51 51 VRB 6 9 30.24 1024 10 16 0.00 0.00
4:53 am 04:53 Clear 45 7.2 29 -1.7 54 54 N 6 9 30.24 1024 10 16 0.00 0.00
5:53 am 05:53 Clear 44 6.7 29 -1.7 55 55 NNW 8 13 30.26 1025 10 16 0.00 0.00
6:53 am 06:53 Clear 44 6.7 30 -1.1 58 58 VRB 6 9 30.29 1026 10 16 0.00 0.00
7:53 am 07:53 Sunny 44 6.7 30 -1.1 58 58 VRB 6 9 30.31 1026 10 16 0.00 0.00
8:53 am 08:53 Sunny 47 8.3 30 -1.1 52 52 VRB 6 9 30.31 1026 10 16 0.00 0.00
9:53 am 09:53 Sunny 49 9.4 30 -1.1 48 48 NNW 12 19 30.31 1026 10 16 0.00 0.00
10:53 am 10:53 Sunny 53 11.7 30 -1.1 41 41 NW 10 17 30.29 1026 10 16 0.00 0.00
11:53 am 11:53 Sunny 56 13.3 30 -1.1 37 37 NW 12 19 30.28 1026 10 16 0.00 0.00
12:53 pm 12:53 Sunny 59 15 30 -1.1 33 33 NW 12 19 30.26 1025 10 16 0.00 0.00
1:53 pm 13:53 Sunny 61 16.1 30 -1.1 31 31 WNW 13 20 30.23 1024 10 16 0.00 0.00
2:53 pm 14:53 Sunny 61 16.1 29 -1.7 30 30 NW 8 13 30.23 1024 10 16 0.00 0.00
3:53 pm 15:53 Sunny 59 15 29 -1.7 32 32 NW 7 11 30.23 1024 10 16 0.00 0.00
4:53 pm 16:53 Sunny 59 15 30 -1.1 33 33 NW 7 11 30.23 1024 10 16 0.00 0.00
5:53 pm 17:53 Clear 56 13.3 30 -1.1 37 37 NW 5 7 30.25 1024 10 16 0.00 0.00
6:53 pm 18:53 Clear 55 12.8 31 -0.6 40 40 WNW 6 9 30.26 1025 10 16 0.00 0.00
7:53 pm 19:53 Clear 54 12.2 31 -0.6 42 42 NW 8 13 30.26 1025 10 16 0.00 0.00
8:53 pm 20:53 Clear 53 11.7 31 -0.6 43 43 NW 8 13 30.27 1025 10 16 0.00 0.00
9:53 pm 21:53 Clear 51 10.6 30 -1.1 44 44 NNW 6 9 30.27 1025 10 16 0.00 0.00
10:53 pm 22:53 Clear 50 10 31 -0.6 48 48 Calm 30.25 1024 10 16 0.00 0.00
11:53 pm 23:53 Partly Cloudy 50 10 32 0 50 50 NNW 3 6 30.25 1024 10 16 0.00 0.00

Powered by AerisWeather